Temp
16 16 17 16 16 16 16 16 16 16 16 15 15 16 16 16 17 17 16 16 16 16 16 16 16 16 16 16 16 16 16 16 16 16 16 15 15 16 15 15 16 16 17 17 18 19 18 17 16 15 15 14 14 15 14 15 15 14 14 14 14 14 14
16 16 16 16 16 17 17 16 16 16 16 16 16 16 16 16 17 17 17 16 16 16 16 16 16 16 16 16 15 15 15 15 16 16 16 16 16 16 16 15 15 16 16 16 17 18 18 18 17 16 15 14 14 15 14 15 14 14 14 14 14 14 14
16 16 16 16 16 16 16 16 15 16 16 16 15 15 15 16 17 17 18 17 16 16 16 16 16 16 15 15 15 15 15 15 16 16 16 16 16 16 16 16 16 16 16 16 17 17 18 18 18 18 17 15 15 15 14 14 14 14 14 14 14 14 14
16 16 15 15 16 16 15 15 16 17 17 16 16 16 15 15 16 17 17 17 16 16 16 16 16 16 16 15 15 15 15 15 15 15 16 16 16 16 16 16 16 17 17 17 18 17 18 18 18 18 17 16 16 16 14 14 14 14 14 14 14 15 15
16 16 15 15 16 16 16 16 16 17 16 16 16 16 17 16 15 15 16 16 16 16 16 16 16 16 16 15 15 15 15 15 15 15 15 15 15 15 16 16 16 17 17 18 18 17 18 18 18 18 18 17 17 17 15 14 14 14 14 14 15 15 14
16 16 16 16 16 16 16 16 16 16 16 15 15 16 17 17 16 15 15 15 15 15 16 16 16 16 16 15 15 15 15 15 15 15 15 15 15 15 15 15 16 16 17 17 17 17 18 18 18 18 18 17 17 17 15 14 14 14 14 14 14 14 14
16 16 16 16 16 16 16 16 16 16 15 15 15 16 16 17 16 15 15 15 15 15 15 16 16 16 16 15 15 16 16 15 15 15 15 15 15 15 15 15 15 16 16 17 17 17 17 17 17 18 18 17 17 17 16 15 14 15 14 14 13 13 14
16 16 16 16 16 15 15 15 16 16 16 15 16 16 16 16 16 16 16 16 15 15 15 16 16 16 16 16 16 15 15 15 15 15 15 15 15 15 15 15 15 16 16 16 16 17 17 17 17 17 17 17 16 17 16 15 15 15 15 15 13 13 13
15 16 16 16 16 15 16 16 16 16 16 16 16 15 15 15 16 16 16 16 16 16 15 15 15 15 16 16 15 15 15 15 15 15 15 15 15 15 15 15 15 16 16 16 16 16 17 17 17 17 17 17 17 16 16 16 16 16 16 16 15 13 13
15 15 15 15 15 15 15 15 15 15 15 16 15 15 15 15 15 15 16 16 16 16 15 15 14 15 16 16 15 15 16 15 15 15 15 15 15 15 15 15 15 16 16 16 16 16 16 16 17 17 17 17 18 18 17 16 17 17 17 16 16 15 13
14 14 15 15 15 15 15 15 15 15 15 15 15 15 15 15 15 15 15 16 16 16 15 15 14 14 15 16 15 16 16 16 15 15 15 14 15 15 15 15 15 15 16 16 16 16 16 16 16 16 17 17 18 18 18 18 18 18 17 16 16 15 14
14 14 14 15 15 15 15 15 15 16 15 15 15 15 15 15 15 15 15 15 16 16 15 15 14 14 15 15 15 15 15 15 15 15 15 14 14 14 15 15 15 15 15 15 16 16 16 16 16 16 16 17 17 17 18 19 19 18 17 16 16 15 15
14 14 14 14 15 15 15 15 15 16 16 15 15 15 15 15 15 15 15 15 15 15 15 15 14 14 14 15 15 15 15 15 15 15 14 14 14 14 14 15 15 15 15 15 15 16 16 16 16 16 16 16 16 16 17 18 19 18 17 16 16 15 15
14 14 14 14 14 14 15 15 15 16 16 15 15 15 15 15 15 15 15 15 15 15 15 15 15 14 15 15 15 15 15 15 15 15 14 14 14 14 14 15 15 15 15 15 15 15 16 16 15 16 16 16 16 16 16 17 19 18 17 16 15 15 15
13 14 14 14 14 14 15 15 15 15 15 14 15 15 15 15 15 15 15 15 15 15 15 15 15 15 15 15 15 15 15 15 15 15 15 14 14 14 14 15 15 15 15 15 15 15 16 16 15 16 16 16 16 16 16 17 18 18 17 16 15 14 15
13 13 14 14 14 14 14 15 15 15 15 14 14 14 14 15 15 15 15 15 15 15 15 15 15 15 15 15 15 15 15 15 15 15 15 15 15 14 15 15 16 15 15 15 16 15 15 15 15 16 16 16 16 16 16 16 17 18 18 16 15 15 15
13 13 13 14 14 14 14 14 14 14 14 14 14 14 14 14 15 15 15 15 15 15 14 15 15 15 15 15 15 15 15 15 15 15 15 15 14 14 15 16 16 15 15 16 16 15 15 15 15 16 16 16 16 16 16 16 16 17 17 17 16 15 15
12 13 13 13 13 14 14 14 14 14 14 14 14 14 14 14 15 15 15 15 15 15 15 15 15 14 15 15 15 15 15 15 14 14 15 15 14 15 15 16 16 15 15 16 16 15 15 14 15 16 16 16 16 16 15 15 16 16 17 17 16 15 15
11 12 12 13 13 13 14 14 14 14 14 14 14 14 14 14 14 15 15 15 15 15 15 14 14 14 15 14 15 15 15 15 14 15 16 15 14 15 15 16 16 15 15 16 16 15 15 14 15 15 16 15 16 16 15 15 16 16 16 17 16 15 14
10 11 12 12 13 13 13 14 14 14 14 14 14 14 14 14 14 15 15 15 15 15 15 15 15 15 14 14 15 16 16 15 14 15 16 15 14 15 16 16 16 16 16 16 16 16 15 15 15 15 15 15 16 16 15 15 15 15 14 15 16 16 15
9 10 11 12 12 13 13 13 14 14 14 14 14 14 14 14 14 14 14 14 15 15 15 15 15 14 14 15 15 16 15 14 14 15 15 14 14 14 15 16 16 16 16 16 16 16 15 15 15 15 15 15 15 15 15 15 15 14 14 15 15 16 15
9 9 10 11 12 13 13 13 13 14 14 14 14 14 14 14 14 14 14 14 14 14 14 14 15 15 15 15 15 15 15 15 15 14 14 14 13 14 15 16 16 16 16 16 16 16 15 15 15 15 15 15 15 15 15 15 15 15 15 15 15 15 15
8 9 10 11 12 13 13 13 13 13 14 14 14 14 14 14 14 14 14 14 14 14 14 15 15 16 16 16 16 16 16 16 15 15 14 13 13 15 15 16 16 16 16 16 16 16 15 15 15 15 15 15 14 15 15 15 15 15 16 15 15 15 15
8 9 10 10 12 13 13 13 13 13 13 13 13 13 14 14 14 14 14 14 14 14 15 16 16 16 16 16 17 17 16 16 15 15 14 13 13 14 15 16 16 16 16 16 16 16 15 15 15 14 15 14 14 14 15 15 15 15 16 16 15 14 15
8 8 8 9 10 11 12 12 13 13 13 13 13 13 13 13 14 14 14 13 14 14 15 16 16 16 16 16 16 17 16 16 15 15 14 14 14 16 16 16 16 16 16 16 16 15 15 15 14 14 14 14 14 14 14 14 15 15 15 15 14 14 15
7 7 8 8 9 10 10 11 10 11 11 12 13 13 13 13 13 13 13 13 14 14 15 16 16 16 16 16 16 16 16 16 16 16 15 15 16 17 17 17 17 16 16 16 16 15 15 15 14 14 14 14 14 14 14 14 14 14 14 14 14 14 15
6 6 7 7 8 8 8 8 8 8 9 10 11 11 12 12 12 12 12 12 13 14 15 16 16 16 16 16 16 16 16 16 16 16 15 16 16 17 17 17 17 16 16 16 15 15 15 15 14 13 13 13 13 14 14 14 14 13 13 14 13 13 14
6 6 6 6 7 7 7 7 7 7 7 8 9 9 9 9 10 10 10 11 11 12 14 15 16 16 16 17 17 17 17 16 16 16 16 16 16 16 17 17 16 16 16 16 15 15 15 14 13 13 12 12 13 13 14 14 14 13 13 13 13 13 14
6 6 6 6 5 5 6 6 6 6 7 7 7 8 8 8 8 9 9 10 10 11 12 13 14 16 17 17 17 17 16 16 16 16 15 15 15 16 16 16 16 16 16 16 15 15 14 14 13 13 13 12 12 12 13 13 13 13 13 13 13 13 13
5 5 5 5 5 5 5 5 5 6 6 6 6 7 7 8 8 8 9 10 10 9 10 10 12 15 17 17 17 16 16 15 15 15 14 14 15 15 15 15 16 16 16 16 15 14 13 13 13 13 13 11 10 10 10 11 12 13 13 13 13 13 12
5 5 5 5 5 5 5 5 5 5 5 5 5 5 7 8 8 7 8 9 8 8 9 10 10 12 15 17 17 16 15 15 14 14 14 14 14 15 15 15 15 16 16 15 14 13 13 13 13 13 13 12 10 9 9 10 11 11 12 12 12 12 12
5 5 5 5 5 5 5 5 4 5 5 5 5 5 6 7 7 7 8 8 8 8 8 9 11 12 13 14 16 16 15 15 14 13 13 13 14 14 14 14 15 15 15 14 13 13 13 14 14 13 13 13 11 9 9 10 10 10 11 11 10 11 11
5 5 5 5 5 5 6 6 5 5 5 6 6 5 6 6 7 7 7 8 8 8 8 9 10 11 12 12 14 15 15 15 14 13 13 13 13 13 13 13 13 14 14 13 13 13 13 13 14 13 13 13 12 10 9 9 10 10 10 10 10 10 10
5 5 5 5 5 5 5 6 6 5 5 5 6 5 5 5 5 6 7 7 7 7 8 8 9 10 10 11 13 14 14 14 14 13 12 11 11 11 11 11 12 12 12 13 13 13 13 13 13 13 13 13 12 11 10 9 9 9 10 9 9 9 9
5 5 5 5 5 5 5 5 5 6 6 5 5 5 5 5 5 6 6 7 7 7 7 8 8 8 9 10 12 13 13 13 12 12 12 10 10 9 9 10 10 11 11 12 12 12 12 13 13 13 12 12 12 11 10 9 9 9 9 9 8 8 8
5 5 5 5 5 5 5 4 4 5 5 5 5 4 4 5 5 5 6 6 6 6 7 7 7 7 8 9 10 11 12 12 12 12 11 10 9 9 9 9 9 9 11 11 12 12 12 12 12 12 12 11 10 10 10 9 9 9 9 8 8 8 7
5 6 6 5 5 5 5 5 4 4 4 4 4 4 4 4 4 4 4 4 5 6 6 6 6 6 7 8 9 9 10 10 10 11 10 9 8 8 8 8 8 9 10 11 11 11 11 11 11 10 10 9 9 9 9 9 8 8 8 8 7 6 6
Height
805 806 807 810 812 813 813 812 812 814 816 818 820 822 822 821 821 822 825 826 826 828 830 831 832 833 834 835 836 837 839 840 842 842 844 845 846 848 849 850 851 851 853 854 853 853 854 856 859 861 862 863 864 865 866 866 867 867 868 869 870 871 871
806 806 807 809 810 810 811 812 813 813 814 816 818 819 818 818 818 819 821 823 824 825 827 829 830 832 833 834 836 837 838 838 840 841 842 843 844 846 847 849 850 851 852 853 853 853 852 853 856 858 860 863 863 864 865 866 866 866 867 868 869 870 871
807 807 808 809 809 809 810 812 813 812 811 813 816 817 817 816 816 817 818 819 820 821 823 826 828 829 831 833 836 837 836 837 838 839 840 841 842 844 845 846 848 849 850 851 852 852 852 852 854 855 858 861 862 863 864 865 865 866 866 867 868 869 870
806 807 808 808 808 809 810 810 811 811 810 811 813 815 816 816 815 815 815 816 818 818 819 822 824 826 829 831 833 834 834 836 837 838 839 840 841 842 843 844 845 846 847 848 848 849 850 851 852 853 856 859 860 861 863 864 865 865 866 867 867 868 869
805 806 806 806 805 805 805 806 807 807 808 809 811 811 811 813 815 816 816 816 816 816 816 818 821 824 827 828 830 832 833 834 835 836 837 839 840 841 842 843 844 845 845 846 846 847 848 849 850 852 854 857 858 860 862 863 864 865 865 866 867 867 869
804 804 803 802 802 802 802 803 804 805 806 808 810 810 809 809 811 814 817 818 817 815 815 816 819 822 824 825 827 829 831 832 834 835 836 837 838 839 840 841 842 843 843 844 845 846 846 848 849 850 853 856 857 858 861 862 863 864 864 865 866 866 867
802 802 801 801 801 801 801 802 803 803 804 806 807 808 808 807 808 810 813 814 815 815 815 815 816 818 819 821 823 825 827 829 831 833 835 836 837 837 839 840 840 841 842 842 843 844 845 847 848 849 851 855 856 857 859 861 862 862 862 863 864 865 866
800 800 799 799 799 800 800 800 800 801 802 803 804 805 806 806 806 807 808 809 812 814 814 815 814 813 815 818 820 822 823 826 829 830 832 834 836 836 837 837 838 839 840 840 842 843 844 845 846 848 850 852 855 857 858 859 860 860 860 862 863 864 865
799 798 797 797 796 796 797 797 798 800 801 802 802 802 803 803 803 804 805 806 807 809 811 813 813 811 812 814 817 818 820 823 825 827 829 831 834 835 835 835 836 837 838 839 840 841 842 843 845 846 848 849 852 854 856 858 858 858 858 860 862 863 864
797 797 797 796 795 794 794 795 796 797 798 799 799 800 800 800 801 802 802 803 803 805 807 810 812 811 810 811 813 815 818 820 822 824 827 829 831 833 834 834 835 836 836 837 839 840 841 842 843 845 846 847 847 849 853 855 854 854 856 858 860 861 862
795 795 795 795 794 792 792 792 792 793 794 796 797 797 798 798 798 800 800 800 800 801 804 807 810 811 810 809 811 813 815 817 819 821 824 827 829 831 832 832 833 834 834 836 837 839 840 841 842 843 844 845 846 846 848 849 850 851 853 856 857 858 859
794 794 793 792 792 791 790 789 789 789 790 792 794 794 795 796 796 797 798 798 798 799 801 804 808 810 809 808 809 811 813 814 816 818 821 824 827 829 829 830 831 832 833 834 835 837 838 839 841 842 843 844 845 845 846 846 847 849 851 853 855 856 857
793 792 792 791 790 789 788 787 786 786 787 789 790 792 793 793 794 795 795 796 796 797 798 800 804 807 807 807 808 809 810 812 814 816 819 822 824 826 826 827 829 830 831 832 834 835 837 838 839 840 841 842 843 844 845 846 846 847 849 851 853 855 856
792 791 790 789 788 787 786 785 784 784 785 786 787 788 789 790 791 792 793 794 794 795 796 797 800 802 804 805 806 806 808 810 812 813 815 818 821 824 824 825 827 828 829 830 832 833 834 836 837 839 840 841 842 843 844 845 845 846 848 850 851 853 854
789 789 788 787 787 785 784 783 784 785 785 786 786 786 787 787 788 789 790 791 792 793 795 795 797 799 801 802 803 804 805 808 810 810 812 815 819 823 823 823 824 825 826 828 829 830 832 834 836 837 838 839 840 841 842 843 844 845 847 849 850 851 852
788 787 787 786 785 784 782 782 783 784 784 785 785 785 785 786 786 786 787 788 789 791 792 793 794 796 797 799 800 801 803 805 807 808 809 812 816 820 821 821 822 823 824 825 827 828 830 832 834 835 836 837 838 839 840 842 843 844 846 847 849 850 851
786 786 785 784 783 782 781 781 781 782 782 782 783 784 784 784 784 785 785 786 787 788 789 791 792 793 795 796 797 799 801 803 805 805 807 810 814 817 819 819 819 820 822 823 824 826 828 830 831 832 834 835 836 837 839 840 842 843 844 846 848 849 850
785 784 783 782 781 780 779 779 779 780 780 780 781 782 782 783 783 783 783 783 785 786 787 788 789 791 792 794 795 797 799 802 804 805 805 808 812 816 817 817 817 818 819 821 822 824 826 828 829 830 832 833 834 835 837 838 840 842 843 844 846 848 849
784 782 781 780 780 778 778 778 778 778 778 778 779 779 780 780 780 781 781 782 783 784 785 786 787 789 790 792 793 794 797 800 803 803 803 805 811 815 815 815 815 816 817 818 820 822 824 825 827 829 830 831 832 833 834 836 838 840 842 843 845 846 847
783 781 779 778 778 777 776 776 776 776 776 776 776 777 777 777 778 779 779 780 780 782 783 784 786 788 789 790 791 792 795 798 801 801 801 804 810 814 814 813 813 814 815 817 818 820 821 823 825 827 828 829 831 832 833 834 836 839 842 843 844 845 846
783 780 778 777 776 775 774 774 774 774 773 773 773 774 774 775 775 776 777 778 778 779 780 782 784 786 787 789 790 791 794 797 800 801 801 804 810 812 812 812 812 813 814 815 816 818 819 821 823 825 827 828 830 831 832 833 835 837 840 842 843 844 844
782 780 777 775 774 774 773 772 771 771 770 770 770 771 771 772 772 773 774 775 776 777 778 779 781 783 785 787 789 790 792 795 798 800 801 805 808 809 809 810 811 812 813 814 815 816 817 819 820 822 824 826 829 830 831 832 833 835 837 839 840 841 842
783 780 777 775 773 773 772 770 769 768 768 768 767 768 768 769 770 771 772 773 773 774 775 776 778 780 783 785 786 788 790 793 796 798 801 805 806 805 806 808 810 811 812 813 814 815 816 817 819 820 821 823 826 828 829 830 831 832 834 835 837 839 840
784 781 778 776 773 772 771 770 769 767 766 766 766 765 766 767 767 768 769 770 770 771 772 774 776 779 781 783 785 786 788 791 794 796 800 805 805 804 805 807 809 810 811 812 813 814 815 816 817 818 820 821 824 826 827 828 829 830 831 832 834 835 837
786 782 779 777 774 772 771 769 768 766 765 764 764 763 764 764 765 765 766 766 767 768 770 772 775 778 780 782 783 785 787 790 793 795 799 802 804 804 805 806 807 809 810 811 812 812 813 814 815 817 818 820 822 824 825 826 827 829 830 830 832 833 834
787 784 781 778 775 773 771 769 768 766 764 763 762 762 762 762 762 763 763 763 765 767 769 771 774 776 778 780 782 784 786 789 792 794 798 800 802 802 804 804 805 807 808 809 810 811 812 813 814 816 817 819 821 822 823 824 825 827 828 829 831 833 834
789 786 783 780 777 775 772 770 768 766 764 763 762 762 762 762 762 762 762 763 764 767 769 770 772 774 777 779 781 783 785 788 791 793 796 798 799 801 802 803 804 805 807 808 809 810 811 812 813 815 817 818 820 821 822 823 824 825 827 828 830 832 833
791 788 785 782 779 777 775 772 770 768 767 765 764 764 763 763 763 762 762 763 764 767 768 770 772 774 775 777 779 782 784 787 789 792 794 796 798 799 801 802 803 804 806 807 808 809 810 811 812 814 816 817 819 819 820 821 822 824 825 827 828 830 831
794 791 788 785 782 780 778 775 773 771 769 768 767 766 765 765 765 763 763 763 765 767 769 770 771 773 774 776 778 781 784 786 789 791 793 796 797 799 800 801 802 804 805 806 807 808 809 810 812 814 815 817 819 819 820 821 822 823 824 826 827 829 831
797 794 791 788 786 783 781 779 776 773 772 771 770 770 769 768 767 765 764 765 766 769 771 771 771 772 774 776 778 781 784 786 789 791 793 795 797 798 799 801 802 803 804 805 806 808 809 810 812 813 815 817 819 820 821 823 823 824 825 826 828 830 832
799 796 794 792 789 787 785 783 780 777 776 775 774 775 773 770 769 768 766 767 770 772 772 772 772 772 774 777 779 782 784 786 789 791 792 794 796 797 799 800 802 803 804 805 806 808 810 811 812 813 815 817 819 822 824 824 824 825 826 828 829 830 832
802 799 797 795 793 791 789 787 785 782 780 779 779 778 774 771 771 772 770 771 774 775 774 773 774 774 777 780 782 783 784 787 789 791 792 794 795 797 799 800 802 803 804 805 807 809 811 812 812 814 815 817 820 822 825 826 826 827 827 829 830 831 833
804 802 800 799 797 795 792 790 789 786 784 783 782 780 777 775 775 775 774 776 778 778 777 776 776 778 782 784 785 785 786 787 789 791 792 794 795 797 799 800 802 804 805 806 808 810 811 812 813 814 815 817 819 822 824 826 827 828 828 830 832 833 835
807 805 803 802 800 798 796 794 792 790 788 786 785 784 782 781 779 777 778 780 781 781 781 781 781 784 787 788 788 788 788 789 790 791 793 795 796 798 800 801 803 805 806 808 809 810 812 812 813 814 815 817 819 821 823 826 828 829 829 831 833 834 836
810 808 806 805 803 802 801 798 796 793 791 790 789 788 787 785 782 781 781 783 784 784 785 786 787 789 791 791 790 790 791 791 792 792 793 796 798 799 801 803 804 805 807 808 810 811 812 812 813 814 816 818 819 821 823 825 828 829 831 832 834 835 836
813 811 809 808 806 805 804 803 800 798 795 793 793 792 791 789 787 787 788 789 789 790 790 792 793 794 794 794 793 793 793 794 794 794 795 797 800 802 803 805 807 808 809 809 810 811 812 814 815 816 817 819 820 822 824 826 828 830 831 833 834 835 836
816 814 812 810 809 808 808 807 805 803 801 798 796 796 796 795 794 794 795 796 796 796 797 797 798 798 799 798 796 796 796 797 798 798 799 801 803 804 806 807 810 812 812 811 811 813 815 817 817 818 819 821 822 824 826 828 830 831 832 833 834 836 837
Wind_Speed
13 14 14 14 14 16 21 23 22 21 19 18 18 15 13 14 16 17 19 21 22 22 21 21 22 23 23 20 19 21 18 16 16 14 15 17 16 15 15 12 7 5 8 7 5 6 5 5 7 7 7 8 9 10 10 9 9 8 6 5 4 6 7
11 12 12 13 14 16 18 17 15 16 17 18 19 18 17 19 22 23 22 23 23 21 20 21 22 22 22 19 22 24 19 16 16 15 15 17 17 16 16 14 8 7 9 6 5 7 5 4 6 7 8 8 9 10 11 9 9 8 7 6 6 7 7
11 12 12 11 12 14 15 12 10 14 18 17 17 19 20 21 22 24 24 25 26 24 21 20 20 20 21 21 24 24 19 17 16 15 15 16 16 15 16 16 13 11 10 8 8 8 6 5 5 6 10 11 9 9 10 10 9 8 8 7 7 8 8
10 12 11 8 9 12 12 12 10 13 18 16 15 17 21 21 21 22 25 26 26 26 23 21 20 18 17 21 24 23 19 18 16 15 16 15 14 15 16 17 17 15 13 10 11 11 9 7 5 6 10 12 11 10 9 10 10 8 8 8 8 9 8
9 11 11 9 11 13 13 14 12 12 15 16 15 17 20 21 20 21 23 23 24 25 24 21 20 16 14 17 20 20 18 18 16 14 16 16 15 14 15 17 17 17 15 11 10 11 9 8 7 6 8 11 10 9 9 9 9 9 8 8 9 9 8
10 12 13 13 14 13 13 13 11 11 12 13 17 18 19 22 23 22 22 20 20 23 23 22 19 15 13 14 15 18 18 17 15 14 15 16 16 15 15 16 17 17 16 12 10 10 9 8 7 6 8 10 9 9 10 9 9 9 8 9 9 9 10
10 13 15 15 13 11 11 12 12 12 12 14 17 19 20 23 25 24 23 23 22 21 22 25 22 18 17 17 16 18 18 17 17 17 16 16 16 16 15 15 17 17 17 16 13 11 10 9 8 8 9 9 8 9 9 10 10 9 8 9 10 9 11
11 13 14 15 14 12 12 13 15 15 14 14 16 19 21 22 23 24 24 24 24 23 24 26 24 22 21 21 19 18 17 18 20 19 17 17 18 18 17 15 16 17 19 19 16 12 11 10 10 11 11 9 7 7 8 9 10 11 10 9 10 10 10
12 13 13 14 14 13 12 13 14 13 12 14 16 18 20 21 22 23 23 24 24 25 26 25 24 23 23 21 19 17 17 19 20 20 18 17 19 20 18 16 15 17 20 21 17 14 13 11 10 11 13 11 7 6 7 7 8 11 12 11 11 11 12
13 14 14 13 12 12 11 12 13 13 12 14 15 15 17 19 20 20 20 22 24 25 24 23 23 22 22 21 19 19 21 20 16 17 18 17 19 21 18 16 15 16 19 20 18 16 14 12 11 12 13 12 9 7 6 6 8 11 14 14 12 13 15
14 15 14 13 12 11 10 11 14 15 14 12 13 15 16 16 16 17 18 19 22 23 20 20 22 21 19 19 19 20 21 20 16 16 18 16 18 21 19 16 15 14 17 20 19 18 16 14 13 12 12 12 11 9 7 6 7 10 13 14 12 12 15
13 14 13 13 13 13 11 10 12 15 14 11 13 19 18 16 15 14 15 17 21 21 19 19 22 22 18 16 16 17 17 18 19 19 18 18 20 24 21 16 15 14 14 17 19 19 17 15 14 13 12 12 11 11 10 7 6 8 11 13 12 13 15
11 12 12 13 14 14 12 10 12 16 15 12 15 19 19 16 15 13 13 16 20 21 20 20 21 20 18 15 15 16 16 17 19 18 17 17 20 23 19 16 16 14 13 15 17 18 18 16 15 13 12 12 12 11 11 9 7 6 9 11 11 13 16
12 11 13 14 15 14 14 14 14 14 14 14 17 21 20 17 14 13 13 14 17 19 19 20 20 19 16 15 15 15 16 16 17 18 17 15 16 19 18 16 16 14 14 15 15 17 18 17 16 15 13 12 13 13 13 12 9 5 8 11 9 11 17
16 14 14 14 14 15 15 15 14 11 10 13 16 19 19 17 15 13 13 14 15 16 17 18 19 19 17 16 15 15 17 17 16 18 19 16 16 18 18 17 16 14 14 15 15 16 17 17 16 15 14 14 13 14 15 13 11 7 7 10 10 11 16
17 16 15 14 14 15 15 15 13 11 11 13 14 15 16 16 15 14 13 13 14 15 16 16 17 18 18 17 17 18 19 18 16 19 21 19 19 20 18 17 17 15 14 15 15 15 15 17 17 14 14 15 13 14 15 14 12 10 8 9 11 11 15
17 16 15 14 14 15 16 16 14 13 14 15 14 14 14 15 16 16 15 14 15 14 15 16 16 18 17 16 17 18 19 18 17 19 21 18 18 20 18 17 17 15 15 15 16 14 13 16 18 17 16 15 14 13 16 16 13 11 9 9 10 10 13
19 18 17 15 14 15 16 16 16 15 15 17 16 15 16 16 16 16 16 15 16 15 15 16 16 17 16 15 16 17 18 18 15 18 20 18 18 20 18 17 17 16 15 16 17 15 13 14 17 18 17 15 14 14 15 17 15 12 11 9 10 10 11
20 20 19 17 15 15 15 16 16 15 15 16 17 17 17 17 16 16 16 16 16 16 16 15 15 16 16 15 16 18 19 18 16 18 20 18 19 19 17 17 17 16 16 17 17 15 14 14 16 17 18 16 14 13 14 16 14 12 11 8 8 10 11
21 21 19 18 16 16 16 16 15 15 16 16 16 17 17 16 16 17 17 17 17 16 16 15 15 15 15 16 18 19 18 17 16 19 19 18 19 19 17 18 19 17 15 15 16 15 14 15 14 14 16 16 15 14 14 14 12 11 11 9 7 8 10
22 21 20 18 17 17 17 17 16 15 16 17 18 18 18 17 16 17 18 17 17 16 16 15 16 16 15 15 16 18 18 16 15 16 17 18 21 20 17 18 18 16 15 15 15 14 14 15 14 12 13 14 14 14 13 12 10 11 14 14 11 9 8
21 22 21 19 18 17 17 17 17 16 16 17 18 19 20 19 17 18 18 18 17 16 15 16 17 18 17 16 16 18 20 18 14 12 13 17 21 19 16 15 15 14 13 13 13 13 13 15 14 13 14 15 14 13 12 12 11 12 15 14 10 9 8
22 23 22 20 19 17 16 16 16 17 16 16 18 19 21 21 19 17 17 18 18 17 18 20 22 22 21 19 19 18 19 18 16 13 13 16 18 16 14 14 14 13 11 11 11 11 11 12 12 14 14 16 16 14 12 13 13 13 14 12 12 11 10
22 22 21 20 19 17 17 16 17 18 18 18 19 20 22 23 22 20 19 19 21 23 24 25 24 23 21 20 18 17 16 17 18 17 16 17 15 14 15 14 13 12 11 10 10 10 10 9 11 13 13 14 17 17 15 14 13 13 13 13 14 15 12
22 22 22 21 19 17 17 17 17 19 19 19 21 23 24 25 25 25 24 23 25 28 28 26 24 22 21 19 16 15 15 16 17 17 17 17 16 15 15 14 13 12 11 10 11 11 12 11 12 13 13 14 16 18 17 16 14 13 13 13 15 15 13
22 21 22 21 19 17 16 15 15 15 15 16 19 22 25 26 25 26 27 27 27 28 28 26 23 21 20 19 16 16 16 18 18 18 19 19 18 15 15 14 13 12 10 11 11 12 13 14 13 13 13 12 13 14 15 15 14 14 14 14 15 16 15
21 20 21 20 19 18 17 16 14 13 10 8 10 13 16 19 20 21 23 24 25 27 27 25 22 21 21 20 18 18 18 19 19 20 20 19 17 15 15 14 13 12 11 11 12 13 14 15 14 12 11 10 11 11 12 13 13 13 13 14 15 15 14
20 19 18 18 18 18 17 16 14 12 10 6 2 2 5 7 11 14 15 17 18 21 23 23 23 22 21 20 19 18 18 18 19 19 19 18 17 17 16 13 11 11 11 11 12 13 15 16 14 12 12 11 10 10 10 11 12 13 13 13 14 14 12
19 17 17 17 17 17 17 16 15 13 11 10 8 6 6 6 6 8 10 12 12 12 15 19 22 22 20 19 19 18 18 19 20 20 20 19 18 17 15 13 11 11 11 11 12 12 14 16 16 15 16 15 13 12 10 7 8 11 12 12 12 11 10
20 18 17 17 17 17 17 16 16 16 15 15 15 15 14 14 13 13 12 11 10 9 10 13 18 20 19 18 18 19 20 21 21 22 22 21 19 17 15 14 13 12 12 12 12 13 15 16 18 20 22 21 18 17 19 18 14 13 14 14 15 15 13
19 19 17 17 17 17 17 17 17 19 20 19 18 18 20 22 21 20 20 17 14 13 12 13 16 18 18 16 17 19 22 23 23 23 23 21 19 18 16 15 14 14 14 14 15 16 16 18 22 25 26 25 22 20 20 21 22 20 19 18 17 16 14
18 18 18 16 16 16 17 17 18 21 24 23 21 21 25 27 26 25 25 21 17 16 16 15 15 16 17 17 18 20 22 23 23 23 22 20 19 18 17 17 16 16 16 17 19 20 19 20 22 22 20 20 23 22 20 21 22 21 20 19 18 17 15
17 18 18 16 15 17 20 21 22 24 25 26 25 26 29 30 29 28 27 23 20 19 17 15 14 14 14 17 19 20 21 23 23 22 21 20 19 18 18 18 18 18 19 20 22 23 21 18 16 14 14 17 22 23 22 21 21 20 20 20 19 18 17
20 19 17 16 16 17 19 22 24 26 27 28 29 29 29 30 31 31 29 25 23 21 19 15 12 10 10 14 18 19 20 21 23 23 22 21 20 19 18 19 20 21 22 23 23 21 18 15 12 13 15 17 20 22 23 23 22 21 22 21 20 18 17
23 22 19 17 18 19 20 22 25 27 29 31 30 30 30 31 33 34 32 28 25 23 20 16 12 8 6 10 15 17 19 21 23 24 24 23 22 20 19 18 19 20 21 22 20 17 15 14 15 16 17 18 20 23 24 24 23 21 20 19 18 16 15
23 26 25 22 20 21 22 23 25 27 29 30 31 30 31 33 34 35 33 31 28 25 22 18 14 10 6 7 11 14 17 19 21 23 25 25 23 22 21 20 18 17 17 18 17 16 15 16 17 19 20 21 23 24 23 23 22 20 19 17 16 15 13
23 26 28 26 21 20 20 21 22 24 25 29 31 29 28 29 31 31 31 31 30 28 25 23 19 14 10 9 11 14 16 18 19 21 23 24 23 22 22 21 19 17 16 17 17 17 16 17 18 21 23 24 24 23 22 21 20 18 17 15 14 13 12
Wind_Direction
243 248 246 245 248 252 255 254 255 259 259 263 261 252 242 232 230 229 224 227 233 234 230 225 221 220 222 218 209 208 203 197 197 191 187 187 190 198 201 201 200 184 179 190 210 199 190 186 183 192 195 197 207 208 204 197 193 192 178 169 167 165 165
252 253 243 238 239 244 253 251 246 250 251 253 253 244 237 233 233 233 231 229 231 230 227 227 225 222 221 218 212 211 205 200 202 198 192 191 194 196 194 195 191 178 184 199 204 196 199 184 178 185 178 184 206 211 207 200 194 190 178 171 171 171 170
264 260 246 241 244 248 261 261 251 259 256 250 252 251 247 243 239 238 238 236 232 229 229 229 225 223 223 214 209 210 207 204 205 203 200 193 194 198 193 190 189 186 189 196 200 197 197 189 191 193 183 185 197 199 203 205 198 188 182 179 173 174 175
261 258 251 248 245 244 258 260 259 275 269 253 251 256 254 249 242 239 239 238 235 230 231 230 223 220 216 207 209 212 207 207 208 207 206 199 194 197 197 196 195 195 195 194 194 192 190 192 192 187 187 194 198 192 197 205 201 192 187 184 181 181 181
250 245 242 242 241 242 245 241 242 261 263 256 251 250 251 247 242 241 239 235 233 230 230 230 225 220 209 205 215 218 210 212 213 207 207 206 203 201 201 203 202 203 205 202 193 190 195 198 192 185 181 188 198 192 188 197 201 197 192 189 188 188 187
254 247 249 248 242 239 237 232 235 242 242 247 248 247 247 243 238 239 240 235 231 231 231 230 228 222 210 203 210 216 217 216 212 210 212 209 206 204 203 206 208 209 210 209 203 200 204 199 193 190 174 179 194 188 184 195 199 197 198 199 195 192 198
259 258 262 260 247 237 241 244 247 244 234 233 240 246 248 242 236 233 235 235 233 235 238 236 230 225 221 215 212 217 221 218 213 216 220 217 212 209 206 205 208 212 213 214 212 210 206 197 192 186 170 176 194 189 188 199 201 202 203 202 199 194 199
255 257 261 260 251 243 246 248 249 248 243 237 240 245 244 240 235 232 231 232 233 237 243 242 234 228 229 228 222 218 215 216 218 217 216 217 219 216 210 208 209 211 214 216 214 212 208 202 195 184 172 170 184 192 197 201 205 214 209 197 199 200 197
269 263 261 260 252 244 241 241 245 248 248 253 254 247 242 238 235 233 231 230 232 236 239 241 236 227 227 227 219 214 214 216 220 221 219 217 221 221 214 209 210 211 216 217 215 214 213 209 200 187 180 177 177 185 198 201 209 217 209 197 198 202 200
277 269 268 267 260 252 244 241 249 255 255 261 262 249 241 237 231 229 231 231 233 233 233 238 236 227 223 223 218 217 221 219 214 220 226 221 220 221 215 212 212 211 217 219 216 216 216 212 203 194 192 193 190 186 188 200 208 209 205 200 199 199 199
274 270 270 271 267 260 250 247 256 261 258 257 258 254 248 237 226 223 228 236 238 233 229 234 235 228 222 219 219 222 224 222 215 218 225 225 224 221 215 216 215 210 218 220 217 217 218 213 206 200 202 204 205 206 202 202 204 199 196 198 199 196 197
283 279 275 270 267 262 255 255 262 264 260 252 255 259 254 240 230 221 220 233 240 234 227 228 231 230 224 217 215 218 218 221 221 219 217 219 225 223 215 213 213 209 213 215 215 217 217 214 208 203 206 208 210 217 218 216 209 190 189 196 199 199 200
297 287 283 275 269 265 259 257 261 265 262 250 249 256 252 241 236 223 212 222 233 232 227 226 229 228 223 217 213 212 211 215 219 218 212 211 222 222 212 208 210 205 203 205 209 214 214 212 209 205 207 209 211 216 219 223 222 187 186 198 196 198 205
317 304 293 280 269 266 262 254 253 259 256 244 246 249 246 240 237 228 215 213 221 224 221 221 224 223 219 217 214 211 210 210 213 216 214 209 220 224 212 203 205 200 196 198 201 208 211 210 209 207 207 209 210 212 212 218 224 198 188 201 195 196 208
328 321 308 287 271 269 267 259 254 254 248 242 244 245 241 238 236 230 221 213 212 215 214 214 219 220 216 212 210 211 213 211 206 213 215 206 212 222 214 204 202 196 195 197 196 203 208 206 205 206 208 208 208 209 210 213 219 208 187 196 196 197 208
328 324 318 301 284 278 276 271 266 259 252 248 246 242 238 237 237 232 225 218 213 212 212 211 212 214 213 209 207 211 215 212 203 210 217 210 207 214 211 203 200 194 194 197 197 200 204 205 206 205 209 210 206 207 209 209 215 212 192 187 193 196 204
331 324 321 314 301 291 283 279 275 267 261 258 252 245 240 237 237 235 229 222 216 211 210 210 208 211 211 208 206 207 211 212 206 210 215 211 208 209 206 201 198 194 194 197 199 199 198 201 205 207 212 213 208 208 212 212 213 212 201 189 187 192 202
335 328 322 318 310 299 288 280 276 272 269 263 255 249 245 238 233 232 229 223 216 211 210 210 209 209 209 205 203 205 211 214 209 205 205 202 207 211 205 198 195 192 193 197 199 198 193 194 201 207 213 216 212 213 217 217 214 212 210 198 184 190 199
336 330 322 316 307 299 291 283 278 274 270 262 253 249 245 237 231 231 229 223 218 214 212 211 208 207 205 200 200 206 213 213 208 206 203 200 210 215 205 199 197 192 192 197 199 198 195 195 197 204 211 214 215 215 216 217 214 208 209 202 184 188 196
331 328 322 313 302 296 292 288 284 277 271 265 256 249 243 237 233 235 233 225 219 216 213 209 206 203 197 195 200 205 208 207 209 211 206 202 213 216 206 203 203 197 196 199 200 199 198 197 199 205 211 213 215 214 215 217 208 193 202 217 207 190 193
329 326 321 313 301 293 291 290 289 283 273 269 263 254 247 241 236 235 234 229 222 217 212 207 202 197 192 192 196 197 199 201 207 212 208 206 214 215 207 204 204 202 204 205 206 205 199 198 201 203 209 216 217 214 214 213 195 184 201 218 217 197 191
333 329 323 317 308 298 294 293 293 287 276 270 267 260 254 250 240 233 232 228 222 217 210 205 203 200 198 195 191 192 198 199 196 202 208 210 212 209 200 199 202 204 208 210 213 214 211 212 213 209 210 215 217 216 213 209 198 192 200 205 200 192 191
339 337 332 322 313 306 301 298 296 292 283 274 269 265 260 254 242 230 226 222 217 215 212 212 211 209 208 205 198 196 200 198 192 198 208 210 209 199 191 196 202 206 210 212 214 214 216 220 221 220 218 215 214 214 210 208 205 200 199 196 191 194 197
345 344 341 333 322 314 308 304 300 296 289 281 273 266 259 250 239 230 223 219 218 220 218 215 212 210 209 208 200 195 196 196 195 199 206 209 205 193 187 192 198 203 207 207 204 201 200 203 205 212 218 218 218 218 213 210 208 204 204 199 194 198 201
354 353 352 347 337 324 315 308 302 295 289 282 275 267 256 244 236 230 225 222 222 221 216 210 206 204 204 203 196 188 189 193 195 197 201 205 202 191 187 189 191 194 197 196 191 186 185 188 192 199 208 215 220 222 221 219 215 210 210 202 196 203 211
358 359 360 356 347 338 331 325 317 308 295 279 266 259 249 237 228 224 222 221 220 217 211 205 201 198 197 195 190 185 188 194 196 196 197 198 195 188 184 184 184 185 188 188 183 179 181 187 190 193 200 208 214 217 221 224 226 224 222 214 206 210 218
2 4 7 6 0 355 349 346 342 335 325 295 257 243 235 226 217 213 214 214 212 209 206 201 196 192 191 188 185 186 192 196 194 191 191 191 188 183 180 180 181 183 186 186 183 182 185 189 188 185 185 192 202 210 215 222 227 225 222 217 211 211 220
6 7 10 13 13 10 6 4 5 5 8 12 351 222 204 200 200 198 198 198 198 198 198 195 190 187 185 183 184 187 190 190 186 183 183 184 180 176 173 173 175 179 183 186 187 188 189 189 183 172 164 163 172 188 203 214 216 211 211 214 213 216 225
9 10 12 17 19 18 17 20 27 34 41 51 61 77 94 108 130 151 165 173 174 178 185 186 183 182 180 179 182 182 180 177 174 172 172 172 171 168 166 167 169 173 179 183 185 187 188 183 170 157 146 136 130 130 130 143 181 193 195 194 189 188 185
14 13 16 23 25 24 23 26 37 49 55 59 63 71 79 83 86 95 111 125 130 136 154 163 166 169 173 177 178 175 171 168 165 163 163 163 163 164 164 165 167 171 175 174 171 173 176 171 158 146 136 126 114 106 105 108 117 131 139 142 142 141 138
20 18 20 25 29 30 29 30 40 54 62 62 61 67 79 82 79 78 85 91 91 97 117 134 142 148 157 171 179 176 170 165 161 159 158 159 162 165 165 165 169 172 170 164 159 162 168 164 151 141 133 125 117 110 110 116 119 120 124 128 129 130 130
25 26 26 27 32 39 40 40 45 56 65 67 62 63 74 80 77 72 75 79 77 78 91 109 125 135 145 162 176 177 171 164 159 155 154 156 159 163 165 166 169 170 164 157 155 157 160 158 149 141 137 134 128 124 125 127 126 126 127 126 124 125 126
33 33 33 32 34 42 48 51 53 55 60 65 64 62 67 72 72 70 70 71 69 66 70 86 109 129 146 160 168 172 170 165 159 153 150 150 151 155 160 164 165 165 161 156 156 157 158 162 161 157 157 152 143 139 139 137 135 133 130 126 123 122 120
44 42 39 37 37 41 47 55 59 59 58 61 61 60 61 64 65 65 66 65 63 60 59 67 88 115 147 160 163 166 166 162 158 152 145 141 140 142 148 154 158 161 161 161 162 165 169 178 183 174 166 160 152 147 144 140 137 134 130 124 120 117 114
51 51 48 44 44 45 45 51 59 64 63 62 60 56 56 58 60 60 60 59 57 56 55 55 63 81 125 154 159 161 159 155 154 150 140 132 129 128 131 139 147 158 165 167 169 172 174 174 170 164 161 157 151 148 146 141 136 132 127 121 117 112 107
52 57 57 54 50 49 48 48 53 59 62 62 60 55 54 57 58 58 57 57 56 58 58 56 56 61 83 130 148 154 154 150 150 148 138 127 122 120 120 121 126 141 156 159 157 155 154 153 153 152 151 149 146 145 144 139 135 131 125 119 114 106 96
51 56 59 57 52 48 47 46 47 50 54 57 58 56 53 55 58 59 58 57 58 60 62 63 63 65 75 101 122 133 137 137 139 139 130 120 117 117 115 114 115 124 134 137 136 135 136 138 140 139 139 140 140 140 137 133 131 126 118 110 103 94 88